Regional Weather Roundup
Issued by NWS Newport/Morehead, NC

Current Version | Previous Version | Text Only | Print | Product List | Glossary On
Versions: 1 2 3 4 5 6 7 8 9 10 11 12 13 14 15 16 17 18 19 20 21 22 23 24 25 26 27 28 29 30 31 32 33 34 35 36 37 38 39 40 41 42 43 44 45 46 47 48 49 50
000
ASUS42 KMHX 291710
RWRMHX
WEATHER ROUNDUP FOR EASTERN NORTH CAROLINA
NATIONAL WEATHER SERVICE NEWPORT/MOREHEAD CITY NC
1200 PM EST THU JAN 29 2015

NOTE: "FAIR" INDICATES FEW OR NO CLOUDS BELOW 12,000 FEET
WITH NO SIGNIFICANT WEATHER AND/OR OBSTRUCTIONS TO VISIBILITY

NCZ015>017-031-032-045>047-102-103-291800-
NORTH COAST

CITY           SKY/WX    TMP DP  RH WIND       PRES   REMARKS
EDENTON        CLOUDY    38  18  44 S5        30.33F
ELIZABETH CITY CLOUDY    37  13  37 E3        30.32F
KITTY HAWK     CLOUDY    39  22  49 CALM      30.30F
MANTEO         CLOUDY    37  23  56 W6        30.31F

$$

NCZ045>047-081-094-103-104-291800-
CENTRAL COAST

CITY           SKY/WX    TMP DP  RH WIND       PRES   REMARKS
FRISCO         MOSUNNY   40  24  53 VRB5      30.32F
SWANQUARTER    NOT AVBL

$$

NCZ095-097-098-100-101-291800-
SOUTHERN COAST

CITY           SKY/WX    TMP DP  RH WIND       PRES   REMARKS
BEAUFORT       PTSUNNY   42  23  46 VRB5      30.32F HAZE
CEDAR ISLAND   NOT AVBL
JACKSONVILLE   PTSUNNY   42  11  28 CALM      30.33F
PINEY ISLAND     N/A    N/A N/A N/A MISG      30.32F
WILMINGTON     MOSUNNY   46  12  25 CALM      30.33F


$$

NCZ011>013-027>030-043-044-078>080-089-090>093-098-291800-
COASTAL PLAIN

CITY           SKY/WX    TMP DP  RH WIND       PRES   REMARKS
AHOSKIE        MOSUNNY   37  12  35 S7        30.32F
CLINTON        MOSUNNY   43  17  35 CALM      30.33F
ELIZABETHTOWN  SUNNY     45  14  29 SE5       30.32F
GOLDSBORO      SUNNY     41  15  34 CALM      30.31F
GREENVILLE     MOSUNNY   41  12  30 SW3       30.33F
HAVELOCK       PTSUNNY   43  12  28 VRB3      30.34F
KENANSVILLE    SUNNY     42  12  29 SW3       30.34F
KINSTON        MOSUNNY   43  12  28 CALM      30.33F
NEW BERN       PTSUNNY   45  13  27 NW3       30.35F
RICHLANDS      PTSUNNY   43  16  33 CALM      30.34F
ROCKY MOUNT    MOSUNNY   40  11  30 S3        30.32F
WASHINGTON     PTSUNNY   38  14  36 SE5       30.33F
WHITEVILLE     SUNNY     47  13  25 CALM      30.32F

$$

AMZ130-135-150-152-154-156-158-170-250-252-270-ANZ085-086-088-633-658-670-291800-
MARINE OBSERVATIONS

STATION/POSITION TIME  TEMP    WIND        PRES    WAVE   SWELL
                       AIR SEA DIR/SP/G            HT/PER HT/PER
                 (UTC) (F)     (DEG/KT/KT) (MB)    (FT/S) (FT/S)
CHESAPEAKE LIGHT 1600   34      90/  2/  3 1027.9
64 E VA BEACH    1700   39 49   20/  4/  8 1025.4    5/11   5/11
DUCK             1700   37 41   50/  2/  2 1025.8
2 E DUCK         1700      42                N/A     4/11   2/11
10 NE DUCK       1700      45                N/A     5/12   2/12
OREGON INLET     1700   38 41   40/  5/  6 1026.5
13E OREGON INLT  1700      43                N/A     5/12   2/12
HATTERAS CG      1700          350/  4/  6   N/A
DIAMOND BUOY     1700   40 71  330/ 10/ 14 1026.7    5/ 9   5/ 9
17 S OCRACOKE    NOT AVBL
CAPE LOOKOUT     1700   39      70/  3/  4 1026.5
BEAUFORT LAB     1700   40 45  190/  3/  5 1026.0
27 SE WRIGHTSVLE NOT AVBL
5 SE WRIGHTSVLE  1600   43 52   80/  6/  6 1028.2
225 S CAPE HAT   1636   56 72  350/ 10/ 16 1026.5    8/10   7/10
41 SE CHARLESTON 1700   55 68  140/  2/  6 1027.5    3/ 7   3/ 7

$$


USA.gov is the U.S. government's official web portal to all federal, state and local government web resources and services.